"Pseudo-MPEC" for P11DBYg

Created 2023 Mar 26 5:22:09 UT using Find_Orb

Click here for an explanation of pseudo-MPECs

 
 Astrometry: 
     P11DBYg* C2023 03 185X`xLAstrometryl;MAa.b]p5FXut*''GUB4redacted;.C*cX=JF51
     P11DBYg  C2023 03 181ipq7A%%OiKbdy$H+I6'^x%hb7+fHO6O(pY\O/%TKC.Olh4;$;yWF51
     P11DBYg  C2023 03 18@BsX'_ZVO/VWZ6mcyr$LS.:A#s\#PWE#iLI]k3m#G]p06i(:+.GmF51
     P11DBYg  C2023 03 18#hpv%M6L]%Sy(jj;]mbudMe-/8'click_AJ/qO]Qec4D3L`WBxK^F51
     P11DBYg 3C2023 03 25si18vuh9'4J6_SMj7$-kBndFMI?p41F/P4*;6TRO-Y?%Jwu2h=ZkT14
     P11DBYg 3C2023 03 25(rQhereyC?0foriO:$+DsBR%q__k/h9A11!9'NDZqckal+?xP8t(T14
     P11DBYg 3C2023 03 25EB#6:f%.bj?=lXEtV%lsJ-fVL`8B\79(YZagBQ`_Cr^qN=GhJgDPT14
     P11DBYg 3C2023 03 25+^ow'+5Eexplanationy=XY$y!/_`RWy#_=A-+Et*PZBEWI*FI)=T14

Station data:
(F51) Pan-STARRS 1, Haleakala  (N20.707234 W156.255910)  US/Hawaii.
   Observers J. Bulger, T. Lowe, A. Schultz, M. Willman. Measurers K.
   Chambers, S. Chastel, T. de Boer, L. Denneau, J. Fairlamb, H. Flewelling,
   M. Huber, C.-C. Lin, E. Magnier, Y. Ramanjooloo, R. Wainscoat, R. Weryk.
   1.8-m Ritchey-Chrétien + CCD.
(T14) Mauna Kea-UH/Tholen NEO Follow-Up (CFHT)  (N19.825252 W155.468876)
   US/Hawaii. 3.6-m Canada-France-Hawaii Telescope.

Orbital elements:  P11DBYg
   Perihelion 2023 Nov 9.32130 +/- 275 TT =  7:42:40 (JD 2460257.82130)
Epoch 2023 Mar 25.0 TT = JDT 2460028.5   Earth MOID: 0.5844      AutoNEOCP
M 278.56000166 +/- 80               (J2000 ecliptic)
n   0.35513489 +/- 0.0722           Peri.  182.11202 +/- 52
a   1.97487895 +/- 0.268            Node    96.55145 +/- 17
e   0.1893859 +/- 0.143             Incl.   23.05005 +/- 5.2
P   2.78                   H 19.12  G  0.15   U 11.0  SR
q 1.60086465 +/- 0.14    Q 2.34889324 +/- 0.832
From 8 observations 2023 Mar. 18-25; mean residual 0".11
Residuals in arcseconds: 
230318 F51  .20+  .07-    230318 F51  .20-  .25+    230325 T14  .05+  .01+    
230318 F51  .07+  .11-    230325 T14  .03-  .02+    230325 T14  .02+  .04-    
230318 F51  .07-  .07-    230325 T14  .03-  .01+    

Ephemerides (geocentric):
Date (UTC) HH   RA             Dec           delta  r     elong  mag " sig PA
---- --------  ------------   ------------  ------ ------ -----  --- --------
2023 03 26 05  12 21 43.284   +43 39 50.02  1.1573 1.9870 134.4 22.0 22.4 132
2023 03 26 06  12 21 40.086   +43 40 04.29  1.1574 1.9869 134.3 22.0 23.6 132
2023 03 26 07  12 21 36.888   +43 40 18.50  1.1574 1.9868 134.3 22.0 24.7 132
2023 03 26 08  12 21 33.689   +43 40 32.64  1.1575 1.9867 134.3 22.0 25.9 131
2023 03 26 09  12 21 30.490   +43 40 46.72  1.1575 1.9866 134.3 22.0 27.2 131
2023 03 26 10  12 21 27.291   +43 41 00.73  1.1575 1.9865 134.3 22.0 28.4 131
2023 03 26 11  12 21 24.092   +43 41 14.68  1.1576 1.9864 134.2 22.0 29.6 131
2023 03 26 12  12 21 20.892   +43 41 28.57  1.1576 1.9863 134.2 22.0 30.9 131
2023 03 26 13  12 21 17.692   +43 41 42.39  1.1577 1.9862 134.2 22.0 32.1 131
2023 03 26 14  12 21 14.492   +43 41 56.15  1.1577 1.9861 134.2 22.0 33.4 131
2023 03 26 15  12 21 11.292   +43 42 09.84  1.1577 1.9860 134.2 22.0 34.7 131
2023 03 26 16  12 21 08.091   +43 42 23.46  1.1578 1.9860 134.1 22.0 36.0 131
2023 03 26 17  12 21 04.891   +43 42 37.03  1.1578 1.9859 134.1 22.0 37.3 131
2023 03 26 18  12 21 01.690   +43 42 50.52  1.1579 1.9858 134.1 22.0 38.6 131
2023 03 26 19  12 20 58.489   +43 43 03.96  1.1579 1.9857 134.1 22.0 40.0 130
2023 03 26 20  12 20 55.288   +43 43 17.33  1.1579 1.9856 134.1 22.0 41.3 130
2023 03 26 21  12 20 52.087   +43 43 30.63  1.1580 1.9855 134.0 22.0 42.7 130
2023 03 26 22  12 20 48.885   +43 43 43.87  1.1580 1.9854 134.0 22.0 44.0 130
2023 03 26 23  12 20 45.684   +43 43 57.05  1.1581 1.9853 134.0 22.0 45.4 130
2023 03 27 00  12 20 42.482   +43 44 10.16  1.1581 1.9852 134.0 22.0 46.8 130
2023 03 27 01  12 20 39.280   +43 44 23.20  1.1582 1.9851 134.0 22.0 48.2 130
2023 03 27 02  12 20 36.078   +43 44 36.19  1.1582 1.9850 133.9 22.0 49.6 130
2023 03 27 03  12 20 32.876   +43 44 49.10  1.1582 1.9849 133.9 22.0 51.0 130
2023 03 27 04  12 20 29.674   +43 45 01.96  1.1583 1.9848 133.9 22.0 52.5 129
2023 03 27 05  12 20 26.472   +43 45 14.74  1.1583 1.9847 133.9 22.0 53.9 129
2023 03 27 06  12 20 23.270   +43 45 27.47  1.1584 1.9846 133.9 22.0 55.4 129
2023 03 27 07  12 20 20.068   +43 45 40.12  1.1584 1.9845 133.8 22.0 56.8 129
2023 03 27 08  12 20 16.866   +43 45 52.72  1.1585 1.9844 133.8 22.0 58.3 129
2023 03 27 09  12 20 13.664   +43 46 05.25  1.1585 1.9843 133.8 22.0 59.8 129
2023 03 27 10  12 20 10.462   +43 46 17.71  1.1586 1.9842 133.8 22.0 61.3 129
2023 03 27 11  12 20 07.259   +43 46 30.11  1.1586 1.9841 133.8 22.0 62.8 129
2023 03 27 12  12 20 04.057   +43 46 42.45  1.1586 1.9840 133.7 22.0 64.4 129
2023 03 27 13  12 20 00.855   +43 46 54.72  1.1587 1.9839 133.7 22.0 65.9 129
2023 03 27 14  12 19 57.653   +43 47 06.92  1.1587 1.9838 133.7 22.0 67.5 128
2023 03 27 15  12 19 54.451   +43 47 19.06  1.1588 1.9837 133.7 22.0 69.0 128
2023 03 27 16  12 19 51.249   +43 47 31.14  1.1588 1.9836 133.7 22.0 70.6 128
2023 03 27 17  12 19 48.047   +43 47 43.15  1.1589 1.9835 133.6 22.0 72.2 128
2023 03 27 18  12 19 44.845   +43 47 55.09  1.1589 1.9835 133.6 22.0 73.8 128
2023 03 27 19  12 19 41.643   +43 48 06.98  1.1590 1.9834 133.6 22.0 75.4 128
2023 03 27 20  12 19 38.441   +43 48 18.79  1.1590 1.9833 133.6 22.0 77.0 128
2023 03 27 21  12 19 35.240   +43 48 30.54  1.1591 1.9832 133.6 22.0 78.7 128
2023 03 27 22  12 19 32.038   +43 48 42.23  1.1591 1.9831 133.5 22.0 80.3 128
2023 03 27 23  12 19 28.837   +43 48 53.85  1.1592 1.9830 133.5 22.0 82.0 128
2023 03 28 00  12 19 25.635   +43 49 05.41  1.1592 1.9829 133.5 22.0 83.6 127
2023 03 28 01  12 19 22.434   +43 49 16.90  1.1593 1.9828 133.5 22.0 85.3 127
2023 03 28 02  12 19 19.233   +43 49 28.33  1.1593 1.9827 133.5 22.0 87.0 127
2023 03 28 03  12 19 16.032   +43 49 39.69  1.1594 1.9826 133.4 22.0 88.7 127
2023 03 28 04  12 19 12.832   +43 49 50.99  1.1594 1.9825 133.4 22.0 90.4 127